Flag for Montenegro Weather past 2 weeks in Podgorica, Montenegro

Now
79 °F

Clear.


Feels Like: 79 °F
Forecast: 73 / 95 °F
Wind: 3 mph from West

Location: Podgorica Titograd

Current Time: Jul 4, 2015 at 11:34:56 PM

Latest Report: Jul 4, 2015 at 11:00 PM


Visibility: 10 mi

Pressure: 30.07 "Hg

Humidity: 39%

Dew point: 52 °F

Location of PodgoricaLocation

Historic Weather in Podgorica — Graph

°F

Podgorica temperature yesterday

Maximum temperature yesterday: 95 °F (at 2:00 PM)
Minimum temperature yesterday: 75 °F (at 4:30 AM)
Average temperature yesterday: 86 °F

Past Weeks' High & Low Weather Summary

 TemperatureHumidityPressure
High95 °F (Jul 3, 2:00 PM)100% (Jun 21, 3:00 AM)30.18 "Hg (Jun 21, 3:00 AM)
Low59 °F (Jun 21, 3:00 AM)17% (Jul 3, 6:30 PM)29.80 "Hg (Jun 19, 10:00 PM)
Average76 °F43%29.99 "Hg
* Reported Jun 19 10:00 PM — Jul 4 10:00 PM, Podgorica, Weather by CustomWeather, © 2015

Note: Actual official high and low records may vary slightly from our data, if they occured in-between our weather recording intervals... More about our weather records

Advertising

Podgorica weather history for previous 24 hours

 ConditionsComfort  
Time TempWeatherWind HumidityBarometerVisibility
10:00 PM
Sat, Jul 4
79 °FClear.No wind42%30.07 "Hg10 mi
9:30 PM81 °FClear.3 mph39%30.07 "Hg10 mi
9:00 PM82 °FPassing clouds.3 mph37%30.04 "HgN/A
8:30 PM86 °FSunny.3 mph29%30.04 "Hg10 mi
8:00 PM86 °FSunny.5 mph29%30.04 "Hg10 mi
7:30 PM90 °FPassing clouds.6 mph26%30.04 "HgN/A
7:00 PM91 °FPassing clouds.8 mph24%30.04 "HgN/A
6:30 PM91 °FPassing clouds.10 mph23%30.04 "HgN/A
6:00 PM91 °FPassing clouds.10 mph23%30.04 "HgN/A
5:30 PM91 °FPassing clouds.10 mph21%30.07 "HgN/A
5:00 PM93 °FPassing clouds.9 mph17%30.07 "HgN/A
4:30 PM93 °FPassing clouds.7 mph17%30.07 "HgN/A
4:00 PM93 °FPassing clouds.8 mph20%30.07 "HgN/A
3:30 PM93 °FPassing clouds.7 mph19%30.07 "HgN/A
3:00 PM93 °FPassing clouds.9 mph20%30.07 "HgN/A
2:30 PM91 °FPassing clouds.9 mph23%30.09 "HgN/A
2:00 PM93 °FPassing clouds.9 mph20%30.09 "HgN/A
1:30 PM91 °FPassing clouds.10 mph21%30.09 "HgN/A
1:00 PM91 °FPassing clouds.10 mph21%30.09 "HgN/A
12:30 PM90 °FPassing clouds.7 mph24%30.12 "HgN/A
12:00 PM90 °FPassing clouds.8 mph26%30.12 "HgN/A
11:30 AM90 °FPassing clouds.10 mph20%30.12 "HgN/A
11:00 AM90 °FPassing clouds.5 mph21%30.12 "HgN/A
10:30 AM88 °FPassing clouds.5 mph24%30.12 "HgN/A
10:00 AM86 °FSunny.1 mph27%30.15 "Hg10 mi
9:30 AM86 °FSunny.1 mph29%30.15 "Hg10 mi
9:00 AM84 °FPassing clouds.3 mph29%30.15 "HgN/A
8:30 AM82 °FPassing clouds.3 mph32%30.15 "HgN/A
8:00 AM82 °FSunny.7 mph32%30.15 "Hg10 mi
7:30 AM81 °FPassing clouds.8 mph37%30.15 "HgN/A
7:00 AM79 °FSunny.8 mph39%30.15 "Hg10 mi
6:30 AM75 °FPassing clouds.7 mph44%30.15 "HgN/A
6:00 AM73 °FClear.7 mph47%30.15 "Hg10 mi
5:30 AM73 °FPassing clouds.8 mph44%30.15 "HgN/A
5:00 AM75 °FClear.8 mph44%30.15 "Hg10 mi
4:30 AM75 °FClear.10 mph41%30.15 "Hg10 mi
4:00 AM75 °FPassing clouds.7 mph41%30.15 "HgN/A
3:30 AM77 °FClear.8 mph39%30.15 "Hg10 mi
3:00 AM77 °FClear.8 mph39%30.15 "Hg10 mi
2:30 AM77 °FClear.9 mph39%30.15 "Hg10 mi
2:00 AM79 °FPassing clouds.9 mph37%30.15 "HgN/A
1:30 AM79 °FClear.9 mph37%30.15 "Hg10 mi
1:00 AM79 °FPassing clouds.8 mph37%30.18 "HgN/A
12:30 AM81 °FPassing clouds.8 mph32%30.18 "HgN/A
12:00 AM81 °FPassing clouds.9 mph32%30.18 "HgN/A
11:30 PM
Fri, Jul 3
82 °FPassing clouds.9 mph30%30.18 "HgN/A
11:00 PM82 °FPassing clouds.10 mph28%30.15 "HgN/A
Weather by CustomWeather, © 2015

See weather overviewHow to use our weather pages